User: anonymous   Login
Location: Vancouver
(49.2500°N, 123.1330°W)
Time: 02:42:51
(UTC-07:00)
Language:

S-56A Canister/Altair - Orbit

View from above orbital plane
View from above orbital plane
View from above satellite
View from above satellite

Ground track
Ground track

The orbit data is extracted from the following two-line orbital elements,

1    82U 61004B   17295.80969062 +.00000171 +00000-0 +19176-3 0  9991
2    82 038.8529 184.7699 1172192 089.1858 284.2656 12.25888280688923
Epoch (UTC): 22 October 2017 19:25:57
Eccentricity: 0.1172192
inclination: 38.8529°
perigee height: 635 km
apogee height: 2498 km
right ascension of ascending node: 184.7699°
argument of perigee: 89.1858°
revolutions per day: 12.25888280
mean anomaly at epoch: 284.2656°
orbit number at epoch: 68892

The dashed part of the orbit path shows where the satellite is in the earth's shadow,  

DLR